Torna al catalogo

FENGYUN 1C DEB

AttivoSSO
NORAD 37591·DEBRIS·🇨🇳 China

Lanciato May 10, 1999 da Taiyuan Satellite Launch Center

Loading…

Prossimi Passaggi (prossime 24 ore)

TLE

AggiornatoSource: Space-Track

Epoca: Sep 14, 2026, 15:32 UTC

1 37591U 99025EKK 26257.64742420  .00010402  00000-0  19930-2 0  9992
2 37591  98.4049 212.1268 0057979 220.9762 314.2639 14.62894368704862

Traccia FENGYUN 1C DEB in tempo reale con AllMySat

Download on the App Store